TimeEDT,TemperatureF,Dew PointF,Humidity,Sea Level PressureIn,VisibilityMPH,Wind Direction,Wind SpeedMPH,Gust SpeedMPH,PrecipitationIn,Events,Conditions,WindDirDegrees,DateUTC
12:13 AM,50.0,46.4,87,30.08,10.0,ESE,5.8,-,0.00,Rain,Light Rain,120,2008-03-19 04:13:00
12:54 AM,50.0,46.9,89,30.06,9.0,SSE,6.9,-,0.00,,Overcast,150,2008-03-19 04:54:00
1:54 AM,52.0,50.0,93,30.03,6.0,SSE,5.8,-,0.00,Rain,Light Rain,150,2008-03-19 05:54:00
2:54 AM,53.1,52.0,96,30.01,4.0,SSE,5.8,-,0.00,,Overcast,160,2008-03-19 06:54:00
3:17 AM,53.6,51.8,94,30.02,3.0,Variable,4.6,-,0.01,,Overcast,0,2008-03-19 07:17:00
3:54 AM,52.0,52.0,100,29.98,4.0,SE,5.8,-,0.01,Rain,Light Rain,140,2008-03-19 07:54:00
4:54 AM,52.0,52.0,100,29.96,4.0,SSE,4.6,-,0.02,Rain,Light Rain,160,2008-03-19 08:54:00
5:54 AM,53.1,52.0,96,29.91,3.0,South,8.1,-,0.02,Rain,Light Rain,190,2008-03-19 09:54:00
6:14 AM,53.6,53.6,100,29.93,5.0,SE,8.1,-,0.00,,Overcast,140,2008-03-19 10:14:00
6:47 AM,55.4,53.6,94,29.93,8.0,South,10.4,21.9,0.00,,Overcast,180,2008-03-19 10:47:00
6:54 AM,55.9,54.0,93,29.89,7.0,SSE,13.8,19.6,0.01,Rain,Light Rain,160,2008-03-19 10:54:00
7:54 AM,55.9,54.0,93,29.89,7.0,South,10.4,-,0.00,Rain,Light Rain,170,2008-03-19 11:54:00
8:54 AM,55.9,54.0,93,29.88,8.0,South,15.0,-,0.01,Rain,Light Rain,180,2008-03-19 12:54:00
9:08 AM,55.4,53.6,94,29.89,6.0,South,16.1,-,0.00,Rain,Light Rain,180,2008-03-19 13:08:00
9:20 AM,55.4,53.6,94,29.89,3.0,South,15.0,-,0.00,Rain,Light Rain,180,2008-03-19 13:20:00
9:33 AM,55.4,55.4,100,29.89,2.0,South,12.7,-,0.01,Rain,Light Rain,170,2008-03-19 13:33:00
9:54 AM,55.9,55.0,97,29.84,2.0,SSE,10.4,-,0.03,Rain,Light Rain,160,2008-03-19 13:54:00
10:02 AM,55.4,55.4,100,29.87,1.8,SSE,10.4,-,0.00,Rain,Light Rain,160,2008-03-19 14:02:00
10:21 AM,55.4,55.4,100,29.87,1.5,South,12.7,-,0.02,Rain,Light Rain,170,2008-03-19 14:21:00
10:54 AM,55.9,55.0,97,29.82,1.8,South,15.0,21.9,0.06,Rain,Light Rain,170,2008-03-19 14:54:00
11:03 AM,55.4,55.4,100,29.84,3.0,South,13.8,-,0.00,Rain,Light Rain,170,2008-03-19 15:03:00
11:40 AM,57.2,55.4,94,29.84,4.0,South,12.7,-,0.01,Rain,Light Rain,190,2008-03-19 15:40:00
11:54 AM,57.0,55.0,93,29.81,2.5,South,10.4,-,0.02,Rain,Light Rain,170,2008-03-19 15:54:00
12:54 PM,57.9,55.9,93,29.76,2.5,SSE,10.4,-,0.03,Rain,Light Rain,160,2008-03-19 16:54:00
1:54 PM,57.9,57.0,97,29.76,2.5,South,10.4,-,0.10,Rain,Heavy Rain,170,2008-03-19 17:54:00
2:03 PM,57.2,57.2,100,29.79,3.0,SSE,9.2,-,0.03,Rain,Rain,160,2008-03-19 18:03:00
2:08 PM,57.2,57.2,100,29.77,2.5,SSE,8.1,-,0.05,Rain,Heavy Rain,150,2008-03-19 18:08:00
2:15 PM,57.2,57.2,100,29.76,3.0,SE,3.5,-,0.08,Rain,Heavy Rain,140,2008-03-19 18:15:00
2:36 PM,57.2,57.2,100,29.75,2.0,SSE,8.1,-,0.15,Rain,Heavy Rain,150,2008-03-19 18:36:00
2:51 PM,57.2,57.2,100,29.73,3.0,SE,5.8,-,0.22,Rain,Rain,130,2008-03-19 18:51:00
2:54 PM,57.9,57.0,97,29.69,3.0,SE,4.6,-,0.23,Rain,Rain,130,2008-03-19 18:54:00
3:06 PM,57.2,57.2,100,29.71,4.0,ESE,6.9,-,0.02,Rain,Rain,120,2008-03-19 19:06:00
3:24 PM,57.2,57.2,100,29.72,2.0,Variable,4.6,-,0.09,Rain,Heavy Rain,0,2008-03-19 19:24:00
3:26 PM,57.2,57.2,100,29.73,1.8,SW,5.8,-,0.10,Rain,Heavy Rain,220,2008-03-19 19:26:00
3:35 PM,57.2,57.2,100,29.71,1.2,SSE,6.9,-,0.20,Rain,Heavy Rain,150,2008-03-19 19:35:00
3:40 PM,57.2,57.2,100,29.70,1.8,SE,8.1,-,0.24,Rain,Heavy Rain,130,2008-03-19 19:40:00
3:49 PM,57.2,57.2,100,29.69,3.0,SE,6.9,-,0.28,Rain,Rain,140,2008-03-19 19:49:00
3:54 PM,57.9,57.9,100,29.66,4.0,SE,5.8,-,0.28,Rain,Light Rain,130,2008-03-19 19:54:00
4:08 PM,57.2,57.2,100,29.68,1.5,SE,6.9,-,0.04,Rain,Rain,140,2008-03-19 20:08:00
4:54 PM,59.0,57.9,96,29.62,1.5,SSE,3.5,-,0.26,Rain,Light Rain,150,2008-03-19 20:54:00
5:01 PM,59.0,57.2,94,29.65,4.0,SE,3.5,-,0.01,Rain,Rain,130,2008-03-19 21:01:00
5:13 PM,59.0,57.2,94,29.64,4.0,Calm,Calm,-,0.05,Rain,Heavy Rain,0,2008-03-19 21:13:00
5:54 PM,59.0,57.9,96,29.58,10.0,South,12.7,-,0.10,,Overcast,180,2008-03-19 21:54:00
6:38 PM,62.6,57.2,82,29.60,10.0,SSW,12.7,24.2,0.00,Rain,Light Rain,200,2008-03-19 22:38:00
6:54 PM,62.1,57.9,86,29.55,10.0,South,11.5,24.2,0.00,,Partly Cloudy,190,2008-03-19 22:54:00
7:54 PM,61.0,55.9,83,29.55,10.0,SSW,12.7,23.0,N/A,,Partly Cloudy,200,2008-03-19 23:54:00
8:54 PM,60.1,55.9,86,29.58,10.0,SSW,10.4,-,N/A,,Overcast,210,2008-03-20 00:54:00
9:46 PM,57.2,53.6,88,29.66,10.0,North,10.4,-,0.00,Rain,Light Rain,360,2008-03-20 01:46:00
9:54 PM,57.0,54.0,89,29.63,10.0,North,10.4,-,0.00,Rain,Light Rain,360,2008-03-20 01:54:00
10:54 PM,55.0,51.1,86,29.63,10.0,NNW,11.5,-,0.00,,Mostly Cloudy,330,2008-03-20 02:54:00
11:54 PM,53.1,48.0,83,29.67,10.0,NNW,16.1,20.7,N/A,,Overcast,330,2008-03-20 03:54:00